RH
49 45 38 20 14 14 12 10 8 8 26 33 25 27 26 20 21 30 38 40 40 43 44 45 47 47 46 43 40 37 31 30 30 31 29 25 23 22 22 21 19 21 24 26 22
63 53 51 45 39 24 16 16 16 14 10 8 31 31 22 25 23 18 22 26 27 27 31 39 42 42 43 42 39 36 32 33 31 30 28 26 23 22 21 22 20 22 24 26 25
72 72 59 56 57 46 42 39 22 18 19 15 13 14 34 29 25 25 21 21 20 20 19 22 30 30 30 29 32 31 29 28 25 23 21 20 18 16 16 16 22 25 23 22 24
63 64 68 58 55 60 58 50 46 44 27 38 20 21 9 25 35 28 25 22 23 21 19 17 18 19 18 18 16 20 18 17 15 12 10 9 8 8 8 8 10 14 17 21 22
51 56 59 56 55 60 59 61 64 52 78 59 76 83 27 16 26 36 32 28 24 23 21 19 19 17 18 16 14 12 12 11 10 9 8 7 6 6 7 7 7 7 8 9 12
54 50 48 44 47 53 57 57 63 67 94 96 96 95 91 26 17 22 40 33 32 25 25 25 22 20 18 18 15 16 13 13 10 9 8 8 7 7 8 8 8 8 8 8 8
46 35 30 25 20 18 26 30 38 50 67 79 78 80 91 97 29 19 30 43 33 33 28 29 28 23 19 24 20 17 17 16 13 13 11 9 7 9 10 8 9 8 9 10 10
32 25 22 19 17 13 12 13 13 11 12 21 42 57 66 81 84 40 20 34 42 33 34 31 30 28 25 21 27 22 19 16 20 18 13 10 17 13 10 12 15 18 18 17 17
24 21 14 11 8 7 6 6 7 9 12 10 11 11 22 37 84 94 29 18 42 42 34 36 32 29 28 25 25 24 19 24 24 19 17 14 24 21 20 20 22 24 27 26 19
20 12 11 10 11 10 9 8 6 6 6 8 9 8 9 8 17 71 93 30 18 51 39 34 36 33 29 28 24 29 32 30 25 23 25 23 22 29 24 23 21 20 20 19 26
12 14 12 10 10 9 8 7 6 6 6 6 7 7 8 7 8 12 38 62 25 21 44 43 35 28 42 43 41 34 32 33 26 21 24 27 21 23 19 18 20 23 24 26 25
16 13 9 8 7 5 4 3 3 3 4 5 6 6 6 6 6 6 11 50 34 25 36 45 35 42 50 44 39 38 30 33 30 26 28 24 22 22 19 20 24 25 24 24 24
8 6 4 3 2 2 2 2 4 4 3 3 5 5 6 6 6 6 7 9 11 28 16 39 51 47 43 47 39 38 32 32 32 30 24 23 20 22 18 21 24 23 26 26 24
3 2 2 2 3 6 7 23 19 66 31 3 6 7 7 7 7 6 6 6 7 9 9 10 48 50 40 42 45 38 39 37 34 31 26 24 19 23 18 18 23 22 26 26 24
2 2 3 6 24 39 66 61 100 100 100 28 10 16 18 14 11 10 10 8 8 9 9 10 12 38 49 44 56 44 44 41 39 34 31 27 23 22 20 20 26 28 26 25 25
3 6 37 96 100 100 100 96 100 100 100 78 42 42 39 26 28 17 16 14 10 11 8 8 10 25 46 51 55 57 48 41 40 40 28 26 22 16 22 24 26 27 24 25 25
9 47 94 100 100 100 100 100 100 100 99 78 77 78 82 60 40 43 27 16 15 10 6 7 8 13 51 55 51 55 52 45 40 40 26 25 24 15 22 25 26 25 25 26 25
27 99 100 100 100 100 100 100 100 88 100 86 98 91 99 65 46 59 59 32 24 19 11 9 8 7 18 42 50 54 57 47 39 35 32 34 23 20 22 21 25 26 26 28 26
96 100 100 100 96 87 100 100 100 100 91 100 100 88 98 95 65 54 47 41 28 21 16 11 9 8 8 32 68 61 56 55 46 38 36 33 27 26 25 26 26 28 28 28 26
100 100 100 100 95 87 95 100 100 96 100 100 69 100 93 100 94 61 40 30 22 19 17 15 11 9 11 22 51 64 68 59 50 42 38 33 31 32 31 31 32 34 31 29 27
100 99 99 91 94 96 96 95 96 100 100 86 92 95 100 95 100 84 70 46 39 46 70 45 18 12 11 14 21 49 62 57 51 45 36 35 32 34 36 36 36 34 31 30 28
98 87 99 89 95 98 96 100 100 99 99 100 100 98 69 82 100 100 100 100 53 34 48 96 93 16 13 10 31 51 71 68 57 45 39 35 34 34 36 37 35 33 31 31 29
91 96 85 96 83 86 100 99 95 95 95 87 98 100 100 100 99 89 98 100 99 94 71 100 100 88 25 26 44 50 63 66 56 50 43 42 33 38 35 39 38 36 35 33 33
96 95 95 95 96 100 98 82 68 61 74 100 100 100 100 100 70 80 85 98 94 96 96 100 98 91 30 9 20 21 34 63 61 51 42 37 37 42 45 50 46 38 38 38 37
100 89 99 100 96 100 98 89 68 68 71 97 100 93 97 100 100 100 97 98 65 92 100 100 88 93 64 37 53 61 89 94 74 56 47 41 40 43 45 43 48 46 44 42 41
78 71 100 97 92 91 100 83 100 98 89 84 70 92 94 100 100 100 100 89 87 100 100 100 82 87 83 65 85 94 96 96 88 69 51 42 38 38 39 40 45 52 51 50 45
90 100 91 69 70 97 100 100 91 96 77 54 66 54 81 98 100 100 100 100 99 100 100 96 94 97 82 80 71 98 84 80 86 79 56 44 39 39 38 42 44 51 58 54 48
Wind_Speed
34 38 42 41 42 39 36 35 36 36 37 36 36 39 36 36 38 39 38 38 37 37 37 37 37 37 38 38 39 39 38 35 33 33 32 33 32 33 32 30 31 32 30 31 33
36 35 41 46 46 45 44 40 38 37 37 37 38 36 38 37 35 38 39 40 39 39 39 40 40 39 39 40 40 40 38 36 37 37 36 37 37 37 36 33 33 31 32 34 36
45 41 34 41 45 49 48 47 45 43 39 39 36 39 38 37 37 36 35 38 39 38 39 40 41 40 39 40 42 41 39 40 40 39 38 39 40 40 38 36 33 34 37 37 36
50 47 41 38 39 43 47 50 48 47 44 44 42 38 38 40 39 38 37 36 36 37 37 39 39 39 38 37 39 41 39 38 39 39 39 39 41 40 39 36 37 39 40 39 37
48 49 46 39 37 40 42 49 49 48 49 50 51 51 42 39 42 40 39 37 37 38 37 38 38 39 36 36 37 37 36 36 37 36 35 36 36 38 36 34 34 37 38 40 41
46 46 46 42 36 37 39 42 46 47 48 45 49 45 50 41 40 43 42 40 38 39 38 36 37 39 39 36 37 35 35 34 35 34 33 33 34 35 31 28 31 34 36 36 38
49 49 47 44 42 40 38 38 43 43 44 44 45 46 47 45 42 42 44 43 42 40 40 39 37 39 40 37 36 35 36 34 33 32 32 33 32 26 28 30 29 27 26 28 30
51 51 51 51 51 51 49 46 43 45 45 44 45 44 43 42 49 40 43 46 45 44 42 41 41 40 40 40 37 36 36 36 33 30 29 30 20 22 27 23 20 20 20 19 19
55 57 60 60 59 60 58 54 53 50 49 48 47 45 39 39 41 46 42 45 48 47 45 44 43 42 41 41 39 39 37 32 30 30 30 28 21 26 23 21 20 19 19 19 19
59 61 62 64 65 66 67 67 61 59 56 53 52 49 46 41 37 41 44 43 48 49 48 48 47 45 44 42 40 35 32 30 28 31 32 29 23 27 26 22 21 21 20 18 18
65 66 69 71 73 73 73 72 71 65 61 58 53 52 50 48 44 42 44 47 46 49 50 49 50 48 40 38 37 37 35 33 32 36 37 31 29 30 26 22 19 19 18 17 19
72 74 77 78 80 81 79 77 71 68 66 59 56 56 51 52 50 49 46 46 46 48 50 51 52 46 45 42 41 40 40 38 38 40 37 34 30 31 25 23 23 20 17 17 18
78 80 81 82 82 80 77 70 62 59 70 67 59 60 54 56 54 53 51 50 50 50 50 53 51 49 49 46 44 42 43 41 41 41 39 36 32 32 27 27 25 20 20 18 19
83 82 78 73 69 62 58 52 49 42 55 66 62 58 57 61 61 55 56 55 54 52 50 56 55 53 52 50 48 47 43 42 43 41 41 39 36 33 29 27 26 22 20 20 21
79 70 63 57 48 36 30 28 27 25 42 49 56 50 54 62 56 56 54 58 55 52 52 50 53 53 53 48 48 46 42 43 43 44 44 43 40 33 32 27 23 23 22 21 22
66 55 41 29 23 24 26 25 23 30 42 36 39 40 38 48 57 58 55 57 57 56 53 54 54 56 55 52 51 49 46 46 46 47 50 42 44 34 33 27 27 23 22 21 22
48 35 27 24 23 23 23 27 28 39 38 35 32 30 19 28 41 50 56 59 58 58 57 54 56 56 56 54 55 53 50 51 51 51 52 44 46 32 33 29 28 24 22 22 22
33 25 24 25 23 20 21 32 32 31 34 32 27 31 21 24 32 33 39 51 53 52 54 50 54 55 56 55 54 54 52 53 54 54 52 44 49 35 32 29 28 25 24 23 23
22 23 20 22 18 18 23 24 31 31 25 21 26 23 24 22 23 30 33 36 44 51 55 53 53 53 51 52 53 54 53 53 54 54 52 47 48 36 33 31 29 27 26 24 23
21 19 19 17 13 16 26 27 36 29 18 24 18 23 23 22 24 28 32 34 37 43 48 53 54 51 51 51 54 53 50 51 55 55 53 51 47 40 34 31 30 28 28 25 24
19 15 17 15 13 13 19 30 31 30 36 30 19 26 23 24 24 29 32 33 35 35 36 40 50 56 51 54 54 57 57 55 57 57 55 53 48 39 35 31 31 32 28 27 25
17 13 12 11 10 13 23 18 29 28 28 36 26 25 28 29 25 25 26 26 33 39 38 35 38 52 55 54 55 57 55 50 53 55 54 53 47 41 37 33 32 30 29 28 26
14 15 15 12 10 11 10 19 27 24 31 28 28 29 28 28 27 24 25 28 27 33 38 35 39 46 52 57 57 58 57 55 55 55 55 53 48 41 39 33 31 30 29 29 27
15 12 13 12 9 11 13 14 18 26 37 29 25 25 30 28 28 25 24 27 31 29 38 33 39 44 51 59 59 63 61 59 58 58 56 54 47 40 39 32 28 29 30 30 28
14 11 9 5 4 8 11 12 15 21 32 32 27 24 28 27 25 22 26 28 32 32 20 34 29 39 42 48 50 55 54 55 55 52 53 46 43 35 36 38 36 34 29 27 28
12 12 3 5 5 3 6 10 9 22 28 25 28 25 25 20 24 20 26 27 36 27 18 32 29 37 39 46 46 49 55 55 56 53 52 48 43 39 41 41 36 32 31 31 31
10 4 2 8 7 3 3 6 10 13 24 26 28 26 25 23 17 18 16 19 20 19 18 32 34 33 39 43 51 50 52 54 52 52 49 49 37 38 40 37 35 33 33 33 31
Wind_Direction
296 285 279 275 274 273 268 265 263 259 258 253 249 251 251 248 245 240 239 241 240 239 238 237 234 235 237 236 234 234 233 233 235 237 240 241 239 241 242 240 239 240 242 243 247
304 291 280 275 273 270 268 265 263 260 259 257 253 246 248 249 249 247 240 238 239 239 238 238 236 236 238 239 238 236 235 236 237 238 238 242 242 243 243 241 240 241 243 245 246
310 304 293 283 276 275 274 271 265 261 259 258 258 252 245 245 245 247 247 241 236 236 236 236 237 236 237 240 239 238 237 237 238 239 239 241 243 245 245 242 241 243 244 246 248
306 303 299 288 281 273 273 271 269 266 260 257 257 257 253 246 246 244 243 243 240 234 234 234 234 233 236 238 241 239 237 237 238 239 240 240 243 245 245 245 243 243 246 249 249
302 300 300 295 285 275 271 273 274 266 261 259 258 255 256 251 247 244 244 241 239 239 234 236 235 235 232 237 238 239 234 233 235 236 238 239 242 245 245 244 245 247 247 249 250
302 299 299 300 293 283 277 275 275 272 269 266 259 254 250 250 248 243 242 243 238 238 239 234 236 235 233 233 236 234 233 230 231 234 235 238 240 243 247 246 243 242 244 247 250
306 304 302 301 299 293 285 279 278 276 273 270 263 263 251 247 244 245 241 241 241 237 235 236 233 236 233 229 231 234 233 233 233 234 234 237 239 246 241 240 240 243 244 245 248
307 305 304 304 302 298 292 287 279 278 274 269 267 263 258 257 240 242 241 238 239 238 236 234 233 232 232 230 229 234 234 234 234 236 233 235 225 225 233 232 231 230 232 239 242
309 307 306 304 299 296 291 286 283 277 274 271 267 264 257 250 256 239 239 239 235 236 235 235 232 232 231 231 231 229 232 236 234 233 230 230 208 223 226 223 225 227 232 232 241
305 304 301 298 295 293 291 289 281 278 274 271 268 265 262 257 248 254 241 241 234 233 233 234 233 230 230 230 233 236 238 237 232 226 224 224 209 223 223 226 228 230 232 234 243
304 302 299 294 292 289 286 283 280 272 268 268 263 259 257 254 248 240 241 237 233 231 231 232 233 233 231 231 234 231 228 230 225 219 222 220 215 225 228 228 222 220 224 233 244
304 301 299 297 293 290 285 281 276 273 267 258 254 255 249 248 246 242 234 234 237 234 231 232 234 232 230 227 228 229 224 222 224 225 226 226 221 228 222 220 221 225 231 238 250
305 301 296 291 286 281 278 276 271 266 263 262 253 253 242 241 238 237 237 233 232 232 232 231 232 231 229 227 226 228 227 223 224 227 228 229 222 225 219 217 226 233 237 249 259
306 301 295 289 284 280 275 271 270 265 262 257 257 248 238 235 235 232 232 233 231 230 232 229 229 230 229 225 225 225 228 227 226 227 229 230 225 223 221 220 228 235 242 253 265
307 302 296 292 288 279 265 248 258 257 260 257 253 248 235 233 239 233 234 235 232 230 230 231 229 231 230 228 227 225 229 230 228 228 228 228 231 217 222 219 227 236 245 258 265
308 304 298 285 275 254 235 205 219 239 250 254 255 253 243 231 231 230 229 231 230 233 229 227 226 226 227 223 225 224 224 228 228 229 229 226 232 218 224 223 230 239 251 259 267
308 300 290 279 270 262 231 203 216 225 244 255 259 258 236 222 229 231 229 230 229 229 228 227 225 222 222 222 224 224 221 226 228 229 230 224 232 221 224 226 236 242 247 260 266
312 294 277 274 265 254 232 209 214 227 235 259 253 246 244 243 230 225 225 225 227 228 230 231 230 225 221 222 224 228 223 228 229 230 233 230 233 227 229 232 239 243 250 257 262
305 294 284 279 268 244 215 229 233 219 226 239 239 229 230 220 220 220 222 219 224 229 233 232 228 224 224 224 223 224 223 227 231 234 234 232 236 231 229 232 238 243 248 251 256
301 302 292 283 268 256 237 219 220 227 229 223 226 227 224 215 214 218 216 213 216 221 227 231 232 228 223 220 221 224 225 225 228 232 235 234 235 234 231 232 238 242 242 247 250
301 304 292 285 258 250 221 236 225 225 228 211 231 220 212 213 218 221 219 218 218 217 217 232 233 228 225 222 220 222 223 221 224 228 232 235 235 233 233 232 236 241 243 243 244
303 303 292 295 269 247 223 232 226 228 227 212 222 216 205 205 223 231 210 215 218 219 223 218 233 234 229 226 221 219 220 224 229 230 232 237 235 235 233 233 236 240 240 241 243
306 305 301 287 265 230 215 227 229 230 220 222 222 226 206 210 223 232 226 222 216 216 220 218 222 230 228 224 220 219 219 221 223 226 228 232 231 233 233 232 236 237 235 239 242
309 304 292 294 262 230 244 235 234 242 222 217 216 210 221 220 222 228 227 223 223 221 217 228 227 230 233 228 224 224 221 218 221 225 227 230 231 234 235 231 229 231 232 235 241
308 314 319 171 277 293 290 254 249 232 218 214 207 207 209 211 208 224 218 224 225 207 237 225 226 226 230 225 223 222 223 223 224 226 230 231 236 230 234 228 230 229 229 232 238
328 310 291 250 313 344 344 283 233 190 204 204 204 212 215 214 226 218 215 224 214 219 226 220 221 219 220 221 221 222 220 220 221 223 227 228 229 224 228 230 231 231 230 233 237
14 83 45 241 267 292 239 5 248 207 199 213 212 215 217 219 228 222 223 228 225 234 213 211 217 216 221 221 221 224 219 219 222 224 229 230 229 229 230 229 230 230 229 230 234